EJU34ED LSGG-LIRN

Flight info

Callsign EJU34ED
Flight time 1h 19m
Altitude 21000
Route MEDAM DCT NITAM/N0440F370 DCT MOGBO DCT SOVAN DCT RITEB DCT EVULI DCT ERIKA
Aircraft A320/M-SDE3FGHIRWY/LB1

Departure

Time 2026-05-05 15:36
Airport Geneva International Airport (LSGG)

Arrival

Time 2026-05-05 16:55
Airport Naples International Airport (LIRN)
Time Latitude Longitude Altitude Speed Heading
2026-05-05 14:51 46.23130 6.10702 1396 ft 0 kts 136°
2026-05-05 15:26 46.23132 6.10699 1393 ft 3 kts 135°
2026-05-05 15:26 46.23148 6.10670 1402 ft 4 kts 110°
2026-05-05 15:27 46.23149 6.10636 1401 ft 4 kts 55°
2026-05-05 15:27 46.23134 6.10612 1419 ft 3 kts 45°
2026-05-05 15:27 46.23132 6.10609 1423 ft 0 kts 45°
2026-05-05 15:29 46.23133 6.10610 1420 ft 1 kts 45°
2026-05-05 15:30 46.23161 6.10651 1409 ft 12 kts 45°
2026-05-05 15:30 46.23215 6.10730 1402 ft 10 kts 45°
2026-05-05 15:30 46.23271 6.10782 1396 ft 9 kts 18°
2026-05-05 15:30 46.23337 6.10819 1398 ft 14 kts 33°
2026-05-05 15:31 46.23401 6.10911 1398 ft 12 kts 45°
2026-05-05 15:31 46.23457 6.10993 1398 ft 11 kts 45°
2026-05-05 15:31 46.23508 6.11067 1404 ft 12 kts 45°
2026-05-05 15:31 46.23572 6.11155 1395 ft 12 kts 30°
2026-05-05 15:32 46.23639 6.11110 1397 ft 11 kts 316°
2026-05-05 15:32 46.23706 6.11080 1387 ft 12 kts 28°
2026-05-05 15:32 46.23799 6.11217 1377 ft 25 kts 46°
2026-05-05 15:32 46.23927 6.11406 1373 ft 28 kts 45°
2026-05-05 15:33 46.24070 6.11616 1369 ft 31 kts 45°
2026-05-05 15:33 46.24231 6.11852 1362 ft 31 kts 45°
2026-05-05 15:33 46.24367 6.12052 1366 ft 27 kts 45°
2026-05-05 15:33 46.24492 6.12236 1372 ft 24 kts 45°
2026-05-05 15:34 46.24608 6.12405 1370 ft 24 kts 46°
2026-05-05 15:34 46.24728 6.12584 1362 ft 26 kts 45°
2026-05-05 15:34 46.24829 6.12681 1363 ft 15 kts 17°
2026-05-05 15:34 46.24916 6.12720 1365 ft 11 kts 17°
2026-05-05 15:35 46.24975 6.12723 1368 ft 10 kts 337°
2026-05-05 15:35 46.24999 6.12646 1372 ft 7 kts 251°
2026-05-05 15:35 46.24962 6.12592 1372 ft 9 kts 224°
2026-05-05 15:35 46.24864 6.12451 1372 ft 47 kts 226°
2026-05-05 15:36 46.24475 6.11878 1372 ft 110 kts 226°
2026-05-05 15:36 46.23815 6.10907 1406 ft 157 kts 225°
2026-05-05 15:36 46.23055 6.09784 2035 ft 155 kts 227°
2026-05-05 15:36 46.22301 6.08667 2775 ft 155 kts 227°
2026-05-05 15:37 46.21547 6.07557 3495 ft 155 kts 226°
2026-05-05 15:37 46.20791 6.06450 4149 ft 154 kts 225°
2026-05-05 15:37 46.20035 6.05346 4762 ft 158 kts 225°
2026-05-05 15:37 46.19212 6.04145 5061 ft 179 kts 224°
2026-05-05 15:38 46.18277 6.02780 5323 ft 204 kts 224°
2026-05-05 15:38 46.17220 6.01236 5709 ft 228 kts 224°
2026-05-05 15:38 46.16048 5.99531 6262 ft 247 kts 224°
2026-05-05 15:38 46.14832 5.97727 7039 ft 254 kts 224°
2026-05-05 15:39 46.13396 5.96251 7919 ft 257 kts 202°
2026-05-05 15:39 46.11622 5.95814 8806 ft 264 kts 179°
2026-05-05 15:39 46.09828 5.96548 9621 ft 276 kts 155°
2026-05-05 15:39 46.08379 5.98423 10415 ft 289 kts 129°
2026-05-05 15:40 46.07499 6.01086 11212 ft 299 kts 116°
2026-05-05 15:40 46.06737 6.03853 11883 ft 308 kts 116°
2026-05-05 15:40 46.05921 6.06834 12164 ft 330 kts 116°
2026-05-05 15:40 46.05033 6.09939 12762 ft 338 kts 121°
2026-05-05 15:41 46.03778 6.12786 13487 ft 337 kts 134°
2026-05-05 15:41 46.02114 6.15151 14144 ft 336 kts 147°
2026-05-05 15:41 46.00225 6.17150 14806 ft 338 kts 148°
2026-05-05 15:41 45.98317 6.19155 15498 ft 341 kts 148°
2026-05-05 15:42 45.96396 6.21181 16182 ft 344 kts 148°
2026-05-05 15:42 45.94459 6.23229 16826 ft 348 kts 148°
2026-05-05 15:42 45.92500 6.25300 17547 ft 351 kts 148°
2026-05-05 15:42 45.90524 6.27382 18214 ft 355 kts 148°
2026-05-05 15:43 45.88525 6.29486 18773 ft 358 kts 148°
2026-05-05 15:43 45.86512 6.31616 19302 ft 361 kts 149°
2026-05-05 15:43 45.84479 6.33779 19834 ft 366 kts 148°
2026-05-05 15:43 45.82427 6.35965 20424 ft 369 kts 148°
2026-05-05 15:44 45.80357 6.38170 20995 ft 372 kts 148°
2026-05-05 15:44 45.78272 6.40394 21553 ft 375 kts 149°
2026-05-05 15:44 45.76171 6.42633 22107 ft 378 kts 149°
2026-05-05 15:44 45.74049 6.44888 22641 ft 381 kts 149°
2026-05-05 15:45 45.71904 6.47160 23173 ft 385 kts 149°
2026-05-05 15:45 45.69741 6.49444 23632 ft 388 kts 149°
2026-05-05 15:45 45.67563 6.51740 24039 ft 390 kts 149°
2026-05-05 15:45 45.65398 6.54021 24528 ft 392 kts 149°
2026-05-05 15:46 45.63195 6.56340 24951 ft 395 kts 150°
2026-05-05 15:46 45.60977 6.58673 25345 ft 398 kts 150°
2026-05-05 15:46 45.58734 6.61022 25727 ft 401 kts 150°
2026-05-05 15:46 45.56475 6.63386 26108 ft 404 kts 151°
2026-05-05 15:47 45.54199 6.65767 26455 ft 407 kts 152°
2026-05-05 15:47 45.52683 6.67353 26688 ft 409 kts 152°
2026-05-05 15:47 45.49601 6.70582 27164 ft 412 kts 152°
2026-05-05 15:47 45.47286 6.73009 27569 ft 414 kts 152°
2026-05-05 15:48 45.44958 6.75445 27972 ft 416 kts 153°
2026-05-05 15:48 45.42607 6.77859 28337 ft 417 kts 153°
2026-05-05 15:48 45.40223 6.80259 28612 ft 421 kts 154°
2026-05-05 15:48 45.37818 6.82652 29047 ft 423 kts 154°
2026-05-05 15:49 45.35395 6.85052 29432 ft 425 kts 155°
2026-05-05 15:49 45.32969 6.87459 29806 ft 427 kts 155°
2026-05-05 15:49 45.30532 6.89884 30160 ft 429 kts 155°
2026-05-05 15:49 45.28083 6.92329 30470 ft 432 kts 155°
2026-05-05 15:50 45.25693 6.95002 30733 ft 444 kts 146°
2026-05-05 15:50 45.23470 6.98078 31025 ft 447 kts 144°
2026-05-05 15:50 45.21277 7.01120 31362 ft 448 kts 144°
2026-05-05 15:50 45.19047 7.04197 31819 ft 446 kts 144°
2026-05-05 15:51 45.16798 7.07293 32309 ft 444 kts 144°
2026-05-05 15:51 45.14609 7.10296 32708 ft 443 kts 144°
2026-05-05 15:51 45.12398 7.13322 33099 ft 442 kts 144°
2026-05-05 15:51 45.10283 7.16508 33435 ft 449 kts 137°
2026-05-05 15:52 45.08435 7.20124 33771 ft 454 kts 133°
2026-05-05 15:52 45.06628 7.23781 34114 ft 453 kts 133°
2026-05-05 15:52 45.04820 7.27429 34407 ft 453 kts 133°
2026-05-05 15:52 45.03008 7.31072 34724 ft 452 kts 133°
2026-05-05 15:53 45.01202 7.34696 35018 ft 451 kts 133°
2026-05-05 15:53 44.99395 7.38316 35312 ft 450 kts 133°
2026-05-05 15:53 44.97591 7.41936 35602 ft 450 kts 132°
2026-05-05 15:53 44.95852 7.45617 35889 ft 451 kts 130°
2026-05-05 15:54 44.94181 7.49378 36144 ft 452 kts 128°
2026-05-05 15:54 44.92551 7.53169 36395 ft 452 kts 128°
2026-05-05 15:54 44.90930 7.56970 36654 ft 452 kts 128°
2026-05-05 15:54 44.89305 7.60751 36897 ft 451 kts 128°
2026-05-05 15:55 44.87658 7.64515 36956 ft 450 kts 129°
2026-05-05 15:55 44.84330 7.71963 36982 ft 447 kts 129°
2026-05-05 15:56 44.80987 7.79346 36974 ft 447 kts 129°
2026-05-05 15:56 44.77649 7.86736 36974 ft 447 kts 129°
2026-05-05 15:57 44.74322 7.94146 36975 ft 447 kts 129°
2026-05-05 15:57 44.70997 8.01543 36933 ft 447 kts 129°
2026-05-05 15:58 44.67652 8.08932 36940 ft 449 kts 130°
2026-05-05 15:58 44.64280 8.16331 36946 ft 450 kts 130°
2026-05-05 15:59 44.60927 8.23688 36951 ft 451 kts 130°
2026-05-05 15:59 44.57547 8.31105 36952 ft 451 kts 130°
2026-05-05 16:00 44.54159 8.38520 36939 ft 452 kts 130°
2026-05-05 16:00 44.50756 8.45941 36949 ft 453 kts 130°
2026-05-05 16:01 44.47347 8.53356 36958 ft 453 kts 130°
2026-05-05 16:01 44.43928 8.60777 36961 ft 453 kts 130°
2026-05-05 16:02 44.40508 8.68179 36970 ft 453 kts 130°
2026-05-05 16:02 44.37656 8.74321 36949 ft 453 kts 130°
2026-05-05 16:03 44.34220 8.81717 36950 ft 454 kts 130°
2026-05-05 16:03 44.30788 8.89109 36954 ft 454 kts 130°
2026-05-05 16:04 44.27327 8.96518 36951 ft 454 kts 130°
2026-05-05 16:04 44.23871 9.03897 36932 ft 455 kts 130°
2026-05-05 16:05 44.20407 9.11278 36924 ft 455 kts 130°
2026-05-05 16:05 44.16935 9.18659 36937 ft 456 kts 130°
2026-05-05 16:06 44.13451 9.26033 36949 ft 456 kts 130°
2026-05-05 16:06 44.09960 9.33409 36955 ft 456 kts 130°
2026-05-05 16:07 44.06470 9.40778 36963 ft 456 kts 130°
2026-05-05 16:07 44.02977 9.48142 36945 ft 456 kts 130°
2026-05-05 16:08 43.99470 9.55499 36934 ft 457 kts 130°
2026-05-05 16:08 43.95967 9.62830 36941 ft 459 kts 130°
2026-05-05 16:09 43.92435 9.70213 36952 ft 459 kts 130°
2026-05-05 16:09 43.88901 9.77598 36957 ft 460 kts 130°
2026-05-05 16:10 43.85351 9.84980 36936 ft 460 kts 130°
2026-05-05 16:10 43.81786 9.92335 36949 ft 460 kts 130°
2026-05-05 16:11 43.78217 9.99704 36945 ft 461 kts 130°
2026-05-05 16:12 43.71076 10.14442 36974 ft 461 kts 130°
2026-05-05 16:13 43.62123 10.32781 36979 ft 462 kts 130°
2026-05-05 16:13 43.58516 10.40138 36973 ft 463 kts 130°
2026-05-05 16:14 43.51281 10.54819 36971 ft 463 kts 130°
2026-05-05 16:15 43.44019 10.69510 36975 ft 464 kts 130°
2026-05-05 16:16 43.36724 10.84182 36989 ft 465 kts 130°
2026-05-05 16:17 43.31232 10.95174 36993 ft 465 kts 130°
2026-05-05 16:18 43.25731 11.06155 36995 ft 466 kts 131°
2026-05-05 16:19 43.20230 11.17095 37007 ft 466 kts 131°
2026-05-05 16:19 43.14699 11.28056 37010 ft 466 kts 131°
2026-05-05 16:20 43.07287 11.42661 37008 ft 467 kts 130°
2026-05-05 16:22 42.97991 11.60903 37019 ft 468 kts 131°
2026-05-05 16:23 42.90532 11.75453 37008 ft 468 kts 130°
2026-05-05 16:23 42.84949 11.86288 37023 ft 468 kts 130°
2026-05-05 16:24 42.81216 11.93554 37027 ft 468 kts 130°
2026-05-05 16:25 42.75745 12.04580 37011 ft 468 kts 129°
2026-05-05 16:25 42.70256 12.15588 37025 ft 468 kts 129°
2026-05-05 16:26 42.63421 12.30752 37049 ft 472 kts 124°
2026-05-05 16:27 42.60144 12.38406 37039 ft 471 kts 125°
2026-05-05 16:27 42.56789 12.46030 37031 ft 471 kts 126°
2026-05-05 16:28 42.53401 12.53619 37027 ft 470 kts 126°
2026-05-05 16:28 42.50009 12.61207 37049 ft 471 kts 126°
2026-05-05 16:29 42.46618 12.68805 37064 ft 471 kts 126°
2026-05-05 16:29 42.43223 12.76398 37073 ft 471 kts 126°
2026-05-05 16:30 42.39823 12.83974 37064 ft 471 kts 125°
2026-05-05 16:30 42.36417 12.91544 37071 ft 471 kts 125°
2026-05-05 16:31 42.33011 12.99098 37070 ft 470 kts 126°
2026-05-05 16:31 42.29598 13.06645 37063 ft 471 kts 126°
2026-05-05 16:32 42.27886 13.10422 36934 ft 472 kts 126°
2026-05-05 16:32 42.26193 13.14155 36642 ft 471 kts 126°
2026-05-05 16:32 42.24479 13.17932 36373 ft 472 kts 126°
2026-05-05 16:32 42.22765 13.21698 35913 ft 471 kts 126°
2026-05-05 16:33 42.21048 13.25455 35350 ft 470 kts 126°
2026-05-05 16:33 42.19332 13.29204 34788 ft 470 kts 126°
2026-05-05 16:33 42.17574 13.32921 34211 ft 468 kts 131°
2026-05-05 16:33 42.15507 13.36265 33634 ft 460 kts 140°
2026-05-05 16:34 42.13210 13.39209 33146 ft 454 kts 142°
2026-05-05 16:34 42.10913 13.42114 32643 ft 451 kts 142°
2026-05-05 16:34 42.08639 13.44998 32154 ft 448 kts 142°
2026-05-05 16:34 42.06381 13.47860 31670 ft 444 kts 142°
2026-05-05 16:35 42.04139 13.50698 31194 ft 441 kts 142°
2026-05-05 16:35 42.01909 13.53513 30724 ft 438 kts 142°
2026-05-05 16:35 41.99697 13.56303 30263 ft 435 kts 142°
2026-05-05 16:35 41.97502 13.59072 29766 ft 431 kts 141°
2026-05-05 16:36 41.95328 13.61815 29346 ft 426 kts 141°
2026-05-05 16:36 41.93182 13.64521 28911 ft 421 kts 141°
2026-05-05 16:36 41.91062 13.67189 28490 ft 415 kts 141°
2026-05-05 16:36 41.88963 13.69825 28076 ft 410 kts 141°
2026-05-05 16:37 41.86891 13.72427 27652 ft 406 kts 141°
2026-05-05 16:37 41.84833 13.75003 27238 ft 402 kts 141°
2026-05-05 16:37 41.82790 13.77550 26816 ft 398 kts 141°
2026-05-05 16:37 41.80774 13.80062 26390 ft 394 kts 141°
2026-05-05 16:38 41.78778 13.82552 25960 ft 391 kts 141°
2026-05-05 16:38 41.76812 13.85005 25508 ft 389 kts 140°
2026-05-05 16:38 41.74842 13.87465 25079 ft 386 kts 140°
2026-05-05 16:38 41.72876 13.89919 24620 ft 386 kts 140°
2026-05-05 16:39 41.70916 13.92363 24156 ft 385 kts 140°
2026-05-05 16:39 41.68956 13.94806 23705 ft 384 kts 140°
2026-05-05 16:39 41.67007 13.97233 23186 ft 381 kts 140°
2026-05-05 16:39 41.65078 13.99626 22731 ft 375 kts 140°
2026-05-05 16:40 41.63181 14.01981 22282 ft 369 kts 140°
2026-05-05 16:40 41.61328 14.04347 21847 ft 366 kts 138°
2026-05-05 16:40 41.59565 14.06797 21415 ft 364 kts 135°
2026-05-05 16:40 41.57860 14.09295 20968 ft 363 kts 135°
2026-05-05 16:41 41.56030 14.11598 20076 ft 373 kts 142°
2026-05-05 16:41 41.54018 14.13864 19212 ft 384 kts 143°
2026-05-05 16:41 41.51932 14.16154 18374 ft 388 kts 143°
2026-05-05 16:41 41.49855 14.18421 17445 ft 383 kts 143°
2026-05-05 16:42 41.47809 14.20658 16535 ft 378 kts 143°
2026-05-05 16:42 41.45792 14.22871 15668 ft 373 kts 143°
2026-05-05 16:42 41.43805 14.25056 14853 ft 367 kts 143°
2026-05-05 16:42 41.41874 14.27187 14396 ft 353 kts 144°
2026-05-05 16:43 41.40022 14.29228 13973 ft 339 kts 142°
2026-05-05 16:43 41.38240 14.31191 13515 ft 327 kts 143°
2026-05-05 16:43 41.36511 14.33096 13045 ft 319 kts 144°
2026-05-05 16:43 41.34797 14.34978 12658 ft 318 kts 144°
2026-05-05 16:44 41.33104 14.36836 12343 ft 313 kts 143°
2026-05-05 16:44 41.31433 14.38669 12012 ft 310 kts 143°
2026-05-05 16:44 41.29779 14.40483 11638 ft 308 kts 144°
2026-05-05 16:44 41.28128 14.42292 11264 ft 307 kts 143°
2026-05-05 16:45 41.26497 14.44081 11010 ft 302 kts 143°
2026-05-05 16:45 41.24885 14.45848 10699 ft 299 kts 143°
2026-05-05 16:45 41.23278 14.47605 10352 ft 298 kts 143°
2026-05-05 16:45 41.21691 14.49342 9908 ft 292 kts 143°
2026-05-05 16:46 41.20143 14.51032 9440 ft 284 kts 143°
2026-05-05 16:46 41.19139 14.52127 9130 ft 279 kts 143°
2026-05-05 16:46 41.17661 14.53739 8681 ft 271 kts 143°
2026-05-05 16:46 41.15760 14.55815 8079 ft 263 kts 143°
2026-05-05 16:47 41.14364 14.57338 7635 ft 257 kts 143°
2026-05-05 16:47 41.13002 14.58821 7350 ft 250 kts 144°
2026-05-05 16:47 41.11672 14.60268 7112 ft 245 kts 144°
2026-05-05 16:47 41.10377 14.61676 6950 ft 236 kts 143°
2026-05-05 16:48 41.09520 14.62523 6806 ft 229 kts 153°
2026-05-05 16:48 41.08076 14.63252 6730 ft 219 kts 173°
2026-05-05 16:48 41.06573 14.63312 6635 ft 215 kts 192°
2026-05-05 16:48 41.05159 14.62737 6463 ft 211 kts 210°
2026-05-05 16:49 41.03982 14.61612 6220 ft 209 kts 227°
2026-05-05 16:49 41.03129 14.60068 5939 ft 209 kts 238°
2026-05-05 16:49 41.02363 14.58423 5634 ft 210 kts 238°
2026-05-05 16:49 41.01591 14.56766 5330 ft 214 kts 238°
2026-05-05 16:50 41.00802 14.55077 5011 ft 216 kts 238°
2026-05-05 16:50 41.00028 14.53421 4696 ft 208 kts 238°
2026-05-05 16:50 40.99284 14.51829 4386 ft 199 kts 238°
2026-05-05 16:50 40.98567 14.50296 4122 ft 191 kts 238°
2026-05-05 16:51 40.97882 14.48834 3834 ft 182 kts 237°
2026-05-05 16:51 40.97233 14.47447 3565 ft 172 kts 237°
2026-05-05 16:51 40.96618 14.46135 3338 ft 163 kts 236°
2026-05-05 16:51 40.96018 14.44855 3084 ft 164 kts 237°
2026-05-05 16:52 40.95422 14.43584 2844 ft 163 kts 237°
2026-05-05 16:52 40.94828 14.42319 2600 ft 161 kts 235°
2026-05-05 16:52 40.94240 14.41064 2369 ft 160 kts 236°
2026-05-05 16:52 40.93671 14.39830 2096 ft 156 kts 237°
2026-05-05 16:53 40.93108 14.38618 1791 ft 153 kts 237°
2026-05-05 16:53 40.92541 14.37462 1576 ft 148 kts 237°
2026-05-05 16:53 40.91978 14.36333 1373 ft 147 kts 238°
2026-05-05 16:53 40.91435 14.35188 1163 ft 149 kts 242°
2026-05-05 16:54 40.90915 14.34011 950 ft 148 kts 242°
2026-05-05 16:54 40.90380 14.32849 725 ft 147 kts 239°
2026-05-05 16:54 40.89844 14.31696 543 ft 147 kts 239°
2026-05-05 16:54 40.89299 14.30547 332 ft 147 kts 239°
2026-05-05 16:55 40.88775 14.29438 258 ft 128 kts 238°
2026-05-05 16:55 40.88395 14.28636 278 ft 78 kts 238°
2026-05-05 16:55 40.88198 14.28218 287 ft 29 kts 238°
2026-05-05 16:55 40.88125 14.28063 294 ft 14 kts 237°
2026-05-05 16:56 40.88053 14.28059 296 ft 7 kts 147°
2026-05-05 16:56 40.88022 14.28097 296 ft 6 kts 117°
2026-05-05 16:56 40.88026 14.28151 291 ft 6 kts 63°
2026-05-05 16:56 40.88052 14.28203 292 ft 7 kts 57°
2026-05-05 16:57 40.88067 14.28267 288 ft 8 kts 95°
2026-05-05 16:57 40.88061 14.28340 287 ft 8 kts 96°
2026-05-05 16:57 40.88054 14.28417 290 ft 9 kts 96°
2026-05-05 16:57 40.88046 14.28497 285 ft 9 kts 105°
2026-05-05 16:58 40.88001 14.28525 285 ft 7 kts 199°
2026-05-05 16:58 40.87969 14.28494 286 ft 4 kts 217°
2026-05-05 16:58 40.87942 14.28453 287 ft 6 kts 246°
2026-05-05 16:58 40.87939 14.28401 288 ft 8 kts 276°
2026-05-05 16:59 40.87930 14.28357 293 ft 3 kts 217°
2026-05-05 16:59 40.87893 14.28346 290 ft 6 kts 188°
2026-05-05 16:59 40.87874 14.28342 292 ft 0 kts 187°